When you browse on this site, cookies collect data to enhance your experience and personalize the content and advertising you see.
Visit our Privacy Policy to learn more. By continuing to use the site, you agree to this use of cookies and data.
EN

Hourly Weather Abovyan

Today, 13 July, Monday

Time Temperature Precipitation Wind Pressure Humidity
00:00 +22°C° 0.9 mm 1 mps 667 mmHg 73%
01:00 +22°C° 0.7 mm 1 mps 667 mmHg 74%
02:00 +22°C° 0.7 mm 1 mps 667 mmHg 75%
03:00 +22°C° 0.7 mm 1 mps 667 mmHg 76%
04:00 +22°C° 0.3 mm 1 mps 667 mmHg 77%
05:00 +22°C° 0.3 mm 1 mps 667 mmHg 77%
06:00 +20°C° 0.3 mm 0 mps 667 mmHg 77%
07:00 +23°C° 0.2 mm 1 mps 667 mmHg 72%
08:00 +24°C° 0.2 mm 1 mps 667 mmHg 66%
09:00 +25°C° 0.2 mm 1 mps 667 mmHg 61%
10:00 +27°C° 0.5 mm 1 mps 667 mmHg 57%
11:00 +28°C° 0.5 mm 2 mps 667 mmHg 52%
12:00 +29°C° 0.5 mm 2 mps 667 mmHg 48%
13:00 +29°C° 0.3 mm 2 mps 667 mmHg 45%
14:00 +30°C° 0.3 mm 2 mps 667 mmHg 43%
15:00 +31°C° 0.3 mm 1 mps 667 mmHg 40%
16:00 +29°C° 0.7 mm 2 mps 667 mmHg 46%
17:00 +28°C° 0.7 mm 2 mps 667 mmHg 53%
18:00 +26°C° 0.7 mm 3 mps 666 mmHg 59%
19:00 +25°C° 0.8 mm 2 mps 667 mmHg 63%
20:00 +24°C° 0.8 mm 2 mps 667 mmHg 67%
21:00 +23°C° 0.8 mm 2 mps 668 mmHg 71%
22:00 +21°C° 0.3 mm 2 mps 668 mmHg 72%
23:00 +22°C° 0.3 mm 1 mps 668 mmHg 73%

Tomorrow, 14 July, Tuesday

Time Temperature Precipitation Wind Pressure Humidity
00:00 +22°C° 0.3 mm 1 mps 668 mmHg 74%
01:00 +21°C° 0 mm 1 mps 667 mmHg 75%
02:00 +21°C° 0 mm 1 mps 667 mmHg 75%
03:00 +20°C° 0 mm 1 mps 667 mmHg 76%
04:00 +21°C° 0 mm 1 mps 668 mmHg 75%
05:00 +21°C° 0 mm 1 mps 668 mmHg 73%
06:00 +22°C° 0 mm 1 mps 668 mmHg 72%
07:00 +23°C° 0.1 mm 1 mps 669 mmHg 67%
08:00 +24°C° 0.1 mm 1 mps 669 mmHg 62%
09:00 +26°C° 0.1 mm 1 mps 670 mmHg 57%
10:00 +27°C° 0.3 mm 1 mps 670 mmHg 53%
11:00 +28°C° 0.3 mm 1 mps 670 mmHg 50%
12:00 +29°C° 0.3 mm 1 mps 670 mmHg 46%
13:00 +30°C° 0.3 mm 1 mps 670 mmHg 43%
14:00 +31°C° 0.3 mm 1 mps 670 mmHg 40%
15:00 +31°C° 0.3 mm 1 mps 670 mmHg 37%
16:00 +31°C° 0.3 mm 2 mps 670 mmHg 39%
17:00 +31°C° 0.3 mm 2 mps 670 mmHg 40%
18:00 +30°C° 0.3 mm 2 mps 670 mmHg 42%
19:00 +28°C° 0.1 mm 2 mps 670 mmHg 46%
20:00 +27°C° 0.1 mm 2 mps 671 mmHg 50%
21:00 +25°C° 0.1 mm 3 mps 671 mmHg 54%
22:00 +24°C° 0.2 mm 2 mps 671 mmHg 56%
23:00 +23°C° 0.2 mm 2 mps 671 mmHg 59%

Day after tomorrow, 15 July, Wednesday

Time Temperature Precipitation Wind Pressure Humidity
00:00 +21°C° 0.2 mm 2 mps 671 mmHg 62%
01:00 +21°C° 0.1 mm 2 mps 671 mmHg 64%
02:00 +22°C° 0.1 mm 1 mps 671 mmHg 66%
03:00 +21°C° 0.1 mm 1 mps 671 mmHg 68%
04:00 +21°C° 0.1 mm 1 mps 671 mmHg 67%
05:00 +22°C° 0.1 mm 1 mps 671 mmHg 67%
06:00 +22°C° 0.1 mm 1 mps 672 mmHg 67%
07:00 +24°C° 0 mm 1 mps 672 mmHg 61%
08:00 +25°C° 0 mm 1 mps 672 mmHg 56%
09:00 +27°C° 0 mm 1 mps 672 mmHg 51%
10:00 +28°C° 0.2 mm 1 mps 672 mmHg 47%
11:00 +29°C° 0.2 mm 2 mps 672 mmHg 44%
12:00 +31°C° 0.2 mm 2 mps 672 mmHg 41%
13:00 +31°C° 0.1 mm 1 mps 672 mmHg 38%
14:00 +32°C° 0.1 mm 1 mps 672 mmHg 35%
15:00 +33°C° 0.1 mm 1 mps 672 mmHg 32%
16:00 +32°C° 0.1 mm 2 mps 671 mmHg 35%
17:00 +32°C° 0.1 mm 2 mps 671 mmHg 37%
18:00 +31°C° 0.1 mm 2 mps 671 mmHg 40%
19:00 +29°C° 0.1 mm 2 mps 671 mmHg 44%
20:00 +27°C° 0.1 mm 3 mps 671 mmHg 49%
21:00 +25°C° 0.1 mm 3 mps 671 mmHg 53%
22:00 +25°C° 0.3 mm 3 mps 671 mmHg 56%
23:00 +24°C° 0.3 mm 2 mps 671 mmHg 58%

16 July, Thursday

Time Temperature Precipitation Wind Pressure Humidity
00:00 +23°C° 0.3 mm 2 mps 671 mmHg 61%
01:00 +23°C° 0.5 mm 2 mps 671 mmHg 64%
02:00 +22°C° 0.5 mm 1 mps 670 mmHg 67%
03:00 +21°C° 0.5 mm 1 mps 670 mmHg 70%
04:00 +22°C° 0.3 mm 1 mps 670 mmHg 69%
05:00 +22°C° 0.3 mm 1 mps 670 mmHg 68%
06:00 +23°C° 0.3 mm 1 mps 670 mmHg 67%
07:00 +24°C° 0.2 mm 1 mps 670 mmHg 63%
08:00 +26°C° 0.2 mm 1 mps 670 mmHg 58%
09:00 +27°C° 0.2 mm 1 mps 670 mmHg 53%
10:00 +28°C° 0.3 mm 1 mps 670 mmHg 49%
11:00 +29°C° 0.3 mm 2 mps 670 mmHg 46%
12:00 +30°C° 0.3 mm 2 mps 670 mmHg 42%
13:00 +31°C° 0.2 mm 2 mps 670 mmHg 40%
14:00 +32°C° 0.2 mm 2 mps 670 mmHg 37%
15:00 +34°C° 0.2 mm 2 mps 670 mmHg 35%
16:00 +32°C° 0.3 mm 1 mps 670 mmHg 37%
17:00 +31°C° 0.3 mm 1 mps 670 mmHg 40%
18:00 +31°C° 0.3 mm 1 mps 670 mmHg 43%
19:00 +29°C° 0.5 mm 1 mps 670 mmHg 50%
20:00 +26°C° 0.5 mm 2 mps 669 mmHg 57%
21:00 +24°C° 0.5 mm 2 mps 669 mmHg 64%
22:00 +24°C° 1.1 mm 2 mps 669 mmHg 67%
23:00 +23°C° 1.1 mm 2 mps 669 mmHg 70%

17 July, Friday

Time Temperature Precipitation Wind Pressure Humidity
00:00 +23°C° 1.1 mm 2 mps 669 mmHg 73%
01:00 +21°C° 0.1 mm 2 mps 669 mmHg 74%
02:00 +22°C° 0.1 mm 1 mps 668 mmHg 74%
03:00 +22°C° 0.1 mm 1 mps 668 mmHg 75%
04:00 +22°C° 0.5 mm 1 mps 668 mmHg 74%
05:00 +22°C° 0.5 mm 1 mps 668 mmHg 72%
06:00 +22°C° 0.5 mm 1 mps 668 mmHg 71%
07:00 +24°C° 0.3 mm 1 mps 669 mmHg 66%
08:00 +25°C° 0.3 mm 1 mps 669 mmHg 60%
09:00 +27°C° 0.3 mm 1 mps 669 mmHg 54%
10:00 +28°C° 0.5 mm 1 mps 669 mmHg 51%
11:00 +29°C° 0.5 mm 2 mps 669 mmHg 47%
12:00 +30°C° 0.5 mm 2 mps 669 mmHg 44%
13:00 +31°C° 0.1 mm 2 mps 669 mmHg 41%
14:00 +32°C° 0.1 mm 2 mps 669 mmHg 38%
15:00 +34°C° 0.1 mm 2 mps 669 mmHg 36%
16:00 +31°C° 0.5 mm 3 mps 669 mmHg 42%
17:00 +30°C° 0.5 mm 3 mps 669 mmHg 48%
18:00 +28°C° 0.5 mm 4 mps 669 mmHg 54%
19:00 +26°C° 0.9 mm 3 mps 669 mmHg 60%
20:00 +25°C° 0.9 mm 3 mps 669 mmHg 67%
21:00 +23°C° 0.9 mm 2 mps 669 mmHg 74%
22:00 +23°C° 0 mm 2 mps 669 mmHg 73%
23:00 +21°C° 0 mm 2 mps 669 mmHg 73%

18 July, Saturday

Time Temperature Precipitation Wind Pressure Humidity
00:00 +22°C° 0 mm 1 mps 669 mmHg 72%
01:00 +22°C° 0.1 mm 1 mps 669 mmHg 72%
02:00 +21°C° 0.1 mm 1 mps 669 mmHg 72%
03:00 +21°C° 0.1 mm 1 mps 669 mmHg 72%
04:00 +22°C° 0.1 mm 1 mps 669 mmHg 71%
05:00 +22°C° 0.1 mm 1 mps 669 mmHg 70%
06:00 +23°C° 0.1 mm 1 mps 669 mmHg 69%
07:00 +24°C° 0.1 mm 1 mps 670 mmHg 64%
08:00 +26°C° 0.1 mm 1 mps 670 mmHg 59%
09:00 +27°C° 0.1 mm 1 mps 670 mmHg 54%
10:00 +29°C° 0.2 mm 1 mps 670 mmHg 50%
11:00 +30°C° 0.2 mm 1 mps 670 mmHg 46%
12:00 +31°C° 0.2 mm 2 mps 670 mmHg 43%
13:00 +32°C° 0.2 mm 1 mps 670 mmHg 40%
14:00 +33°C° 0.2 mm 1 mps 670 mmHg 38%
15:00 +33°C° 0.2 mm 1 mps 670 mmHg 36%
16:00 +32°C° 0.2 mm 2 mps 670 mmHg 41%
17:00 +30°C° 0.2 mm 2 mps 669 mmHg 46%
18:00 +29°C° 0.2 mm 2 mps 669 mmHg 51%
19:00 +28°C° 0.2 mm 2 mps 670 mmHg 54%
20:00 +26°C° 0.2 mm 2 mps 670 mmHg 57%
21:00 +25°C° 0.2 mm 2 mps 670 mmHg 60%
22:00 +25°C° 0 mm 2 mps 670 mmHg 61%
23:00 +24°C° 0 mm 2 mps 671 mmHg 62%
Show more